STARLINK-1730 (46563 NORAD) Tracking and Keplerian Element Data

This shows tracking and keplerian element data for the satellite.

Feedback or suggestion? Click here.




ElementValue
Catalog46563
NameSTARLINK-1730
Epoch Orbit177
Epoch Day304.91667824
Epoch Year2020
RAAN321.889
Inclination53.002
Eccentricity0.0001009
Argument of Perigee76.8721
Mean Anonmoly203.3918
Mean Motion15.62667989
Decay Rate0.00080705
L11 46563U 20070AH 20304.91667824 .00080705 00000-0 88139-3 0 9997
L22 46563 53.0020 321.8890 0001009 76.8721 203.3918 15.62667989 1778

Live tracking and technical data element details for STARLINK-1730 (NORAD 46563). STARLINK-1730 can be tracked NOW for your location showing map with azimuth and elevation plus other details from your city location.

Track the satellite on the map from your city or location and see movement details for azimuth, elevation, latitude, longitude, range, height, and movement on the map or in text.







IsCatalogInMostPopularTable: catalog: 46563, numindb: 3
Update: records affected: 1



GetName: 46563 STARLINK-1730

Hit Count: updated at: Sat, 31 Oct 2020 09:58:59 GMT